Location: Ammerl�gen
(47.2167°N, 9.6000°E)
Time: 12:09:09
(UTC+00:00)

RS-15 - Pass Details

Date: 08 December 2021
Orbit: 1882 x 2162 km, 64.8° (Epoch: 22 January)

Event Time Altitude Azimuth Distance (km) Brightness Sun altitude
Exits shadow 00:25:08 23° 72° (ENE) 3,623 9.5 -61.6°
Drops below altitude 10° 00:30:14 10° 50° (NE) 4,600 10.3 -61.1°
Sets 00:34:25 0° 39° (NE) 5,639 10.9 -60.6°
